Terug naar catalogus

SCOUT X-4 R/B

ActiefPO
NORAD 809·ROCKET BODY·🇺🇸 United States

Gelanceerd Jun 4, 1964 vanaf Vandenberg Space Force Base

Loading…

Volgende Passages (komende 24 uur)

TLE

VersSource: Space-Track

Epoch: Sep 14, 2026, 13:32 UTC

1 00809U 64026D   26257.56427329  .00000240  00000-0  12759-3 0  9998
2 00809  90.4500 182.3178 0041239 134.9209 225.5335 14.10818771190748

Volg SCOUT X-4 R/B in realtime met AllMySat

Download on the App Store